Saint David, ME

2:27 AM EST on December 06, 2016 (GMT -0500)
Northern Aroostook Regional

Weather History for KFVE - September, 2012

Change the Weather History Date:

Sunday, September 9, 2012

  Actual Average Record
Temperature  
Mean Temperature 57 °F 56 °F  
Max Temperature 64 °F 66 °F 86 °F (2001)
Min Temperature 49 °F 47 °F 32 °F (2003)
Degree Days  
Heating Degree Days 8    
Month to date heating degree days 38  
Since 1 July heating degree days 112  
Cooling Degree Days 0    
Month to date cooling degree days 2  
Year to date cooling degree days 198  
Growing Degree Days 8 (Base 50)    
Moisture  
Dew Point 52 °F    
Average Humidity 81    
Maximum Humidity 100    
Minimum Humidity 62    
Precipitation  
Precipitation 0.01 in 0.11 in 1.66 in (2004)
Month to date precipitation 0.51 1.10  
Year to date precipitation 21.42 23.16  
Sea Level Pressure  
Sea Level Pressure 29.68 in    
Wind  
Wind Speed 9 mph (WSW)    
Max Wind Speed 15 mph    
Max Gust Speed 20 mph    
Visibility 9 miles    
Events Rain    
T = Trace of Precipitation, MM = Missing Value Source: NWS Daily Summary

Daily Weather History Graph

Daily Weather History Graph

Search for Another Location

Airport or City:

Trip Planner

Search our weather history database for the weather conditions in past years. The results will help you decide how hot, cold, wet, or windy it might be!

Date:

Astronomy

Sep. 09, 2012 Rise Set
Actual Time 6:03 AM EDT 6:56 PM EDT
Civil Twilight 5:32 AM EDT 7:27 PM EDT
Nautical Twilight 4:55 AM EDT 8:04 PM EDT
Astronomical Twilight 4:15 AM EDT 8:43 PM EDT
Moon No Moon Rise 2:57 PM EDT (9/9)
Length of Visible Light 13h 55m
Length of Day
12h 53m
Last Quarter, 39% of the Moon is Illuminated
Sep 9
Last Quarter
Sep 15
New
Sep 22
First Quarter
Sep 29
Full
Oct 8
Last Quarter

Hourly Weather History & Observations

Time (EDT) Temp. Dew Point Humidity Pressure Visibility Wind Dir Wind Speed Gust Speed Precip Events Conditions
12:08 AM 64.4 °F 64.4 °F 100% 29.53 in 2.5 mi SW 17.3 mph 32.2 mph 0.10 in Rain Heavy Rain
12:14 AM 64.4 °F 64.4 °F 100% 29.52 in 1.2 mi SSW 18.4 mph 29.9 mph 0.18 in Rain Heavy Rain
12:17 AM 64.4 °F 64.4 °F 100% 29.52 in 1.8 mi SSW 19.6 mph 31.1 mph N/A Rain Heavy Rain
12:29 AM 64.4 °F 64.4 °F 100% 29.52 in 3.0 mi SSW 13.8 mph 26.5 mph 0.28 in Rain Rain
12:53 AM 64.0 °F 63.0 °F 96% 29.52 in 10.0 mi WSW 11.5 mph - 0.32 in Rain Light Rain
1:53 AM 62.1 °F 60.1 °F 93% 29.54 in 10.0 mi SSW 8.1 mph - 0.00 in   Overcast
2:53 AM 61.0 °F 55.9 °F 83% 29.54 in 10.0 mi SW 11.5 mph 18.4 mph N/A   Mostly Cloudy
3:53 AM 59.0 °F 55.9 °F 90% 29.56 in 10.0 mi SW 9.2 mph - 0.01 in Rain Light Rain
4:53 AM 59.0 °F 55.0 °F 87% 29.58 in 10.0 mi SW 6.9 mph - N/A   Clear
5:53 AM 57.9 °F 54.0 °F 87% 29.59 in 10.0 mi SSW 10.4 mph - N/A   Scattered Clouds
6:02 AM 57.2 °F 55.4 °F 94% 29.62 in 10.0 mi SSW 9.2 mph - N/A   Mostly Cloudy
6:53 AM 55.0 °F 51.1 °F 86% 29.65 in 10.0 mi West 15.0 mph 21.9 mph N/A   Mostly Cloudy
7:53 AM 54.0 °F 48.0 °F 80% 29.68 in 10.0 mi West 15.0 mph 21.9 mph N/A   Mostly Cloudy
8:53 AM 55.0 °F 48.9 °F 80% 29.70 in 10.0 mi WSW 10.4 mph - N/A   Overcast
9:53 AM 55.9 °F 48.0 °F 75% 29.73 in 10.0 mi West 12.7 mph 18.4 mph N/A   Overcast
10:53 AM 57.0 °F 48.0 °F 72% 29.73 in 10.0 mi SW 11.5 mph - N/A   Overcast
11:53 AM 60.1 °F 48.0 °F 64% 29.74 in 10.0 mi WSW 13.8 mph 18.4 mph N/A   Partly Cloudy
12:53 PM 61.0 °F 48.0 °F 62% 29.75 in 10.0 mi West 6.9 mph - N/A   Unknown
1:53 PM 60.1 °F 46.9 °F 62% 29.75 in 10.0 mi West 10.4 mph - N/A   Overcast
2:53 PM 60.1 °F 46.9 °F 62% 29.76 in 10.0 mi WSW 10.4 mph - N/A   Overcast
3:53 PM 59.0 °F 48.0 °F 67% 29.77 in 10.0 mi WSW 8.1 mph - N/A   Overcast
4:53 PM 59.0 °F 48.9 °F 69% 29.78 in 10.0 mi WSW 8.1 mph - N/A   Overcast
5:53 PM 57.9 °F 48.0 °F 70% 29.79 in 10.0 mi West 4.6 mph - N/A   Scattered Clouds
6:53 PM 55.9 °F 48.0 °F 75% 29.80 in 10.0 mi West 8.1 mph - N/A   Partly Cloudy
7:53 PM 55.0 °F 46.9 °F 74% 29.82 in 10.0 mi West 9.2 mph - N/A   Scattered Clouds
8:53 PM 54.0 °F 46.0 °F 75% 29.82 in 10.0 mi WNW 9.2 mph - N/A   Mostly Cloudy
9:53 PM 53.1 °F 46.0 °F 77% 29.82 in 10.0 mi West 9.2 mph - N/A   Mostly Cloudy
10:53 PM 52.0 °F 45.0 °F 77% 29.83 in 10.0 mi WNW 8.1 mph - N/A   Overcast
11:53 PM 50.0 °F 45.0 °F 83% 29.82 in 10.0 mi NW 3.5 mph - N/A   Partly Cloudy